KC0VVH Weather Reports


time (UTC)temp
C
wind
direction
speed
KPH
gust
KPH
rain 1hr
cm
rain 24hr
cm
rain mn
cm
humidity
%
barometer
mb
20260506190924 14 7 9.7 20.9 0.00 0.15 0.15 22 1017.9
20260506190015 13 11 6.4 24.1 0.00 0.15 0.15 24 1017.9
20260506185415 14 343 1.6 14.5 0.00 0.15 0.15 25 1017.9
20260506184515 13 357 3.2 20.9 0.00 0.15 0.15 24 1017.9
20260506183615 13 11 4.8 19.3 0.00 0.15 0.15 23 1017.9
20260506182703 13 18 3.2 19.3 0.00 0.15 0.15 26 1017.9
20260506181815 13 15 4.8 20.9 0.00 0.15 0.15 28 1017.9
20260506180915 13 38 6.4 16.1 0.00 0.15 0.15 28 1017.9
20260506180015 12 19 4.8 20.9 0.00 0.15 0.15 29 1017.9
20260506175403 12 13 4.8 20.9 0.00 0.15 0.15 31 1017.9
20260506174515 12 23 4.8 14.5 0.00 0.15 0.15 32 1017.9
20260506173615 12 37 6.4 16.1 0.00 0.15 0.15 29 1017.9
20260506172715 12 21 6.4 16.1 0.00 0.15 0.15 29 1017.9
20260506171803 12 18 4.8 17.7 0.00 0.15 0.15 29 1017.9
20260506170915 12 6 6.4 22.5 0.00 0.15 0.15 33 1017.9
20260506170003 12 3 4.8 20.9 0.00 0.15 0.15 32 1017.9
20260506165415 12 345 4.8 20.9 0.00 0.15 0.15 33 1017.9
20260506164515 12 13 3.2 17.7 0.00 0.15 0.15 35 1017.9
20260506163615 11 273 1.6 11.3 0.00 0.15 0.15 47 1017.9
20260506162715 11 350 0.0 6.4 0.00 0.15 0.15 47 1017.9
20260506161815 11 307 0.0 6.4 0.00 0.15 0.15 47 1017.9
20260506160924 11 360 0.0 3.2 0.00 0.15 0.15 50 1017.9
20260506160015 10 0 0.0 0.0 0.00 0.15 0.15 55 1017.9
20260506155415 9 360 0.0 4.8 0.00 0.15 0.15 59 1017.9
20260506154524 8 0 0.0 1.6 0.00 0.15 0.15 60 1017.9
20260506153615 8 354 0.0 6.4 0.00 0.15 0.15 63 1017.9
20260506152703 7 355 0.0 9.7 0.00 0.15 0.15 59 1017.9
20260506151815 7 355 0.0 6.4 0.00 0.15 0.15 63 1017.9
20260506150915 7 355 1.6 12.9 0.00 0.15 0.15 64 1017.9
20260506150015 7 3 1.6 12.9 0.00 0.15 0.15 68 1017.9
20260506145403 6 355 0.0 6.4 0.00 0.15 0.15 70 1017.9
20260506144515 6 356 0.0 4.8 0.00 0.15 0.15 73 1017.9
20260506143615 6 0 0.0 0.0 0.00 0.15 0.15 76 1017.9
20260506142724 6 0 0.0 0.0 0.00 0.15 0.15 75 1017.9
20260506141803 6 0 0.0 0.0 0.00 0.15 0.15 76 1017.9
20260506140915 6 0 0.0 0.0 0.00 0.15 0.15 76 1017.9
20260506140015 6 0 0.0 0.0 0.00 0.15 0.15 76 1017.9
20260506135415 6 0 0.0 0.0 0.03 0.15 0.15 78 1017.9
20260506134503 5 0 0.0 0.0 0.03 0.15 0.15 80 1017.9
20260506133615 5 0 0.0 0.0 0.03 0.15 0.15 78 1017.9
20260506132736 5 0 0.0 0.0 0.05 0.15 0.15 78 1017.9
20260506131815 5 224 0.0 6.4 0.10 0.15 0.15 77 1017.9
20260506130936 5 224 0.0 6.4 0.13 0.15 0.15 78 1017.9
20260506130015 5 223 0.0 3.2 0.13 0.15 0.15 78 1017.9
20260506125403 5 223 1.6 12.9 0.13 0.13 0.13 77 1017.9
20260506124503 5 231 1.6 12.9 0.13 0.13 0.13 78 1017.9
20260506123636 5 261 6.4 19.3 0.13 0.13 0.13 76 1017.9
20260506122715 6 285 4.8 24.1 0.10 0.10 0.10 75 1017.9
20260506121815 6 285 4.8 20.9 0.05 0.05 0.08 74 1017.9
20260506120936 6 284 9.7 27.4 0.03 0.03 0.03 72 1017.9
20260506120015 7 288 12.9 32.2 0.03 0.03 0.03 68 1017.9
20260506115436 8 299 6.4 35.4 0.00 0.00 0.00 66 1017.9
20260506114536 9 292 8.0 35.4 0.00 0.00 0.00 58 1017.9
20260506113615 10 274 3.2 16.1 0.00 0.00 0.00 55 1017.9
20260506112736 10 283 1.6 14.5 0.00 0.00 0.00 53 1017.9
20260506111803 9 295 1.6 14.5 0.00 0.00 0.00 54 1017.9
20260506110915 9 317 1.6 16.1 0.00 0.00 0.00 56 1017.9
20260506110015 8 232 0.0 3.2 0.00 0.00 0.00 57 1017.9
20260506105415 8 0 0.0 0.0 0.00 0.00 0.00 58 1017.9
20260506104503 8 0 0.0 0.0 0.00 0.00 0.00 58 1017.9
20260506103636 8 0 0.0 0.0 0.00 0.00 0.00 59 1017.9
20260506102715 8 0 0.0 0.0 0.00 0.00 0.00 59 1017.9
20260506101803 9 0 0.0 0.0 0.00 0.00 0.00 59 1017.9
20260506100936 10 0 0.0 0.0 0.00 0.00 0.00 58 1017.9
20260506100015 10 0 0.0 0.0 0.00 0.00 0.00 55 1017.9
20260506095436 10 0 0.0 0.0 0.00 0.00 0.00 53 1017.9
20260506094515 10 232 0.0 8.0 0.00 0.00 0.00 54 1017.9
20260506093624 10 232 0.0 6.4 0.00 0.00 0.00 54 1017.9
20260506092715 10 0 0.0 0.0 0.00 0.00 0.00 54 1017.9
20260506091803 10 257 0.0 4.8 0.00 0.00 0.00 55 1017.9
20260506090915 9 236 0.0 6.4 0.00 0.00 0.00 58 1017.9
20260506090015 9 0 0.0 0.0 0.00 0.00 0.00 59 1017.9
20260506085415 9 0 0.0 0.0 0.00 0.00 0.00 59 1017.9
20260506084503 10 0 0.0 0.0 0.00 0.00 0.00 56 1017.9
20260506083603 10 0 0.0 0.0 0.00 0.00 0.00 54 1017.9
20260506082715 10 0 0.0 0.0 0.00 0.00 0.00 54 1017.9
20260506081824 11 0 0.0 0.0 0.00 0.00 0.00 53 1017.9
20260506080915 11 0 0.0 0.0 0.00 0.00 0.00 53 1017.9
20260506072715 11 296 1.6 11.3 0.00 0.00 0.00 53 1017.9
20260506071815 11 256 1.6 12.9 0.00 0.00 0.00 52 1017.9
20260506070915 11 257 0.0 8.0 0.00 0.00 0.00 51 1017.9
20260506061815 12 119 0.0 4.8 0.00 0.00 0.00 45 1017.9
20260506060915 13 227 0.0 8.0 0.00 0.00 0.00 45 1017.9
20260506050915 13 285 0.0 8.0 0.00 0.00 0.00 46 1017.9
20260506044503 13 289 0.0 11.3 0.00 0.00 0.00 45 1017.9
20260506043615 13 294 0.0 6.4 0.00 0.00 0.00 45 1017.9
20260506042715 13 256 0.0 8.0 0.00 0.00 0.00 44 1017.9
20260506041815 13 242 1.6 12.9 0.00 0.00 0.00 43 1017.9
20260506040915 13 228 1.6 9.7 0.00 0.00 0.00 43 1017.9
20260506040015 13 0 0.0 1.6 0.00 0.00 0.00 42 1017.9
20260506035403 13 256 0.0 8.0 0.00 0.00 0.00 42 1017.9
20260506034515 13 260 1.6 11.3 0.00 0.00 0.00 42 1017.9
20260506033615 13 266 0.0 9.7 0.00 0.00 0.00 41 1017.9
20260506032715 13 267 0.0 9.7 0.00 0.00 0.00 42 1017.9
20260506031803 13 268 0.0 6.4 0.00 0.00 0.00 42 1017.9
20260506030915 13 0 0.0 0.0 0.00 0.00 0.00 42 1017.9
20260506030015 13 309 0.0 6.4 0.00 0.00 0.00 42 1017.9
20260506025436 13 314 0.0 11.3 0.00 0.00 0.00 43 1017.9
20260506024536 13 0 0.0 0.0 0.00 0.00 0.00 43 1017.9
20260506023615 13 0 0.0 0.0 0.00 0.00 0.00 44 1017.9
20260506022703 13 0 0.0 0.0 0.00 0.00 0.00 44 1017.9
20260506021824 13 298 0.0 4.8 0.00 0.00 0.00 44 1017.9
20260506020915 13 291 1.6 14.5 0.00 0.00 0.00 44 1017.9
20260506020003 13 311 3.2 25.7 0.00 0.00 0.00 44 1017.9
20260506015436 13 305 4.8 25.7 0.00 0.00 0.00 43 1017.9
20260506014524 13 310 8.0 22.5 0.00 0.00 0.00 42 1017.9
20260506013615 14 297 11.3 27.4 0.00 0.00 0.00 42 1017.9
20260506012736 14 305 9.7 22.5 0.00 0.00 0.00 42 1017.9
20260506011803 14 317 8.0 29.0 0.00 0.00 0.00 42 1017.9
20260506010936 15 322 8.0 24.1 0.00 0.00 0.00 41 1017.9
20260506010003 15 310 11.3 27.4 0.00 0.00 0.00 40 1017.9
20260506005436 15 298 6.4 25.7 0.00 0.00 0.00 39 1017.9
20260506004515 15 295 11.3 27.4 0.00 0.00 0.00 38 1017.9
20260506003636 15 309 12.9 25.7 0.00 0.00 0.00 38 1017.9
20260506002715 16 309 9.7 29.0 0.00 0.00 0.00 37 1017.9
20260506001803 16 304 8.0 25.7 0.00 0.00 0.00 37 1017.9
20260506000915 16 311 11.3 25.7 0.00 0.00 0.00 38 1017.9
20260506000015 16 322 8.0 25.7 0.00 0.00 0.00 37 1017.9
20260505235436 16 323 11.3 33.8 0.00 0.00 0.00 36 1017.9
20260505234515 17 350 12.9 30.6 0.00 0.00 0.00 35 1017.9
20260505233615 18 326 14.5 33.8 0.00 0.00 0.00 32 1017.9
20260505232703 21 315 3.2 32.2 0.00 0.00 0.00 10 1017.9
20260505231803 21 276 3.2 17.7 0.00 0.00 0.00 8 1017.9
20260505230936 22 268 3.2 17.7 0.00 0.00 0.00 8 1017.9
20260505230015 22 252 3.2 17.7 0.00 0.00 0.00 8 1017.9
20260505225415 22 238 3.2 16.1 0.00 0.00 0.00 8 1017.9
20260505224503 22 272 6.4 20.9 0.00 0.00 0.00 9 1017.9
20260505223636 22 321 4.8 20.9 0.00 0.00 0.00 9 1017.9
20260505222736 21 235 3.2 27.4 0.00 0.00 0.00 9 1017.9
20260505221824 21 294 3.2 12.9 0.00 0.00 0.00 8 1017.9
20260505220915 22 302 3.2 22.5 0.00 0.00 0.00 9 1017.9
20260505220024 21 293 4.8 24.1 0.00 0.00 0.00 8 1017.9
20260505215415 21 300 4.8 24.1 0.00 0.00 0.00 8 1017.9
20260505214515 21 271 4.8 20.9 0.00 0.00 0.00 8 1017.9
20260505213615 22 255 4.8 20.9 0.00 0.00 0.00 7 1017.9
20260505212715 22 290 3.2 16.1 0.00 0.00 0.00 7 1017.9
20260505211815 21 256 3.2 16.1 0.00 0.00 0.00 8 1017.9
20260505210915 22 274 1.6 14.5 0.00 0.00 0.00 9 1017.9
20260505210015 22 229 3.2 14.5 0.00 0.00 0.00 9 1017.9
20260505205415 22 256 4.8 17.7 0.00 0.00 0.00 9 1017.9
20260505204515 22 312 3.2 17.7 0.00 0.00 0.00 10 1017.9
20260505203603 22 282 4.8 19.3 0.00 0.00 0.00 10 1017.9
20260505202715 22 297 3.2 16.1 0.00 0.00 0.00 10 1017.9
20260505201803 22 268 4.8 24.1 0.00 0.00 0.00 11 1017.9
20260505200903 22 245 3.2 20.9 0.00 0.00 0.00 10 1017.9
20260505200003 22 309 6.4 29.0 0.00 0.00 0.00 11 1017.9
20260505195415 22 314 8.0 29.0 0.00 0.00 0.00 11 1017.9
20260505194503 22 227 1.6 16.1 0.00 0.00 0.00 12 1017.9
20260505193615 21 294 3.2 22.5 0.00 0.00 0.00 13 1017.9
20260505192715 21 251 3.2 22.5 0.00 0.00 0.00 13 1017.9
20260505191815 21 315 4.8 25.7 0.00 0.00 0.00 14 1017.9